This is the latest recevied weather packets stored in our database for station/object HS6PNA-2. If no packets are shown the sender has not sent any weather packets the latest 10 day(s).
| Time | Temp. | Humidity | Pressure | Rain* | Wind** | Luminosity | Snow |
|---|---|---|---|---|---|---|---|
| 1778064843 | 31.11° C | 29% | 1000 hPa | - | - | 0 W/m² | - |
| 1778063918 | 30.56° C | 29% | 1000 hPa | - | - | 0 W/m² | - |
| 1778062993 | 30.56° C | 29% | 1000 hPa | - | - | 0 W/m² | - |
| 1778062069 | 30.56° C | 29% | 1000 hPa | - | - | 0 W/m² | - |
| 1778061144 | 30.56° C | 27% | 1000 hPa | - | - | 0 W/m² | - |
| 1778060220 | 30.56° C | 27% | 1000 hPa | - | - | 0 W/m² | - |
| 1778059295 | 30.56° C | 27% | 1000 hPa | - | - | 0 W/m² | - |
| 1778058371 | 30.56° C | 28% | 1000 hPa | - | - | 0 W/m² | - |
| 1778057446 | 31.11° C | 28% | 1000 hPa | - | - | 0 W/m² | - |
| 1778056522 | 31.11° C | 28% | 1000 hPa | - | - | 0 W/m² | - |
| 1778055597 | 31.11° C | 28% | 1000 hPa | - | - | 0 W/m² | - |
| 1778054673 | 31.11° C | 29% | 1001 hPa | - | - | 0 W/m² | - |
| 1778053748 | 31.11° C | 29% | 1001 hPa | - | - | 0 W/m² | - |
| 1778052824 | 30.56° C | 29% | 1001 hPa | - | - | 0 W/m² | - |
| 1778051900 | 31.11° C | 30% | 1001 hPa | - | - | 0 W/m² | - |
| 1778050975 | 31.11° C | 34% | 1001 hPa | - | - | 0 W/m² | - |
| 1778050051 | 31.11° C | 34% | 1002 hPa | - | - | 0 W/m² | - |
| 1778049126 | 31.11° C | 34% | 1002 hPa | - | - | 0 W/m² | - |
| 1778048202 | 30.56° C | 35% | 1002 hPa | - | - | 0 W/m² | - |
| 1778047277 | 31.67° C | 35% | 1003 hPa | - | - | 0 W/m² | - |
| 1778046352 | 31.11° C | 36% | 1003 hPa | - | - | 0 W/m² | - |
| 1778045428 | 31.11° C | 34% | 1003 hPa | - | - | 0 W/m² | - |
| 1778044504 | 32.22° C | 38% | 1004 hPa | - | - | 0 W/m² | - |
| 1778043579 | 33.33° C | 54% | 1004 hPa | - | - | 0 W/m² | - |
| 1778042655 | 35.56° C | 50% | 1004 hPa | - | - | 0 W/m² | - |
* Rain since midnight (hover to see other rain measurements)
** Current wind speed in m/s (hover to see current wind gust speed)